Retour au catalogue

BREEZE-M R/B

ActifMEO
NORAD 39488·ROCKET BODY·🇷🇺 Russia

Lancé Dec 26, 2013 depuis Baikonur Cosmodrome

Loading…

Prochains Passages (prochaines 24 heures)

TLE

FraisSource: Space-Track

Époque: Sep 14, 2026, 07:42 UTC

1 39488U 13077B   26257.32136435 -.00000197  00000-0  00000-0 0  9997
2 39488  10.8336  58.3020 0562876 184.8133 174.7534  0.89565692 41472

Suivez BREEZE-M R/B en temps réel avec AllMySat

Download on the App Store